Location: Praha
(50.0830°N, 14.4670°E)
Time: 16:46:24
(UTC+01:00)

ISS - Pass Details

Date: 09 November 2018
Orbit: 401 x 408 km, 51.6° (Epoch: 20 November)

Event Time Altitude Azimuth Distance (km) Brightness Sun altitude
Exits shadow 05:15:26 59° 283° (WNW) 475 -3.9 -17.7°
Maximum altitude 05:16:00 88° 202° (SSW) 410 -3.9 -17.6°
Drops below altitude 10° 05:19:17 10° 108° (ESE) 1,463 0.2 -17.1°
Sets 05:21:22 0° 108° (ESE) 2,323 1.6 -16.7°
